C/2019 L3 ( ATLAS )

Japanese version
Home page
Updated on February 27, 2020

---------------------------------------------------------------------

* Profile

Discovery Date June 10, 2019
Magnitude 18.1 mag
Discoverer Asteroid Terrestrial-Impact Last Alert System (ATLAS) search program

* Pictures

* Orbital Elements

Epoch 2022 Jan. 21.0 TT = JDT 2459600.5
T 2022 Jan.  9.56789 TT                                 Williams
q   3.5543255            (2000.0)            P               Q
z  -0.0004788      Peri.  171.61044     -0.26051896     -0.66630993
 +/-0.0000116      Node   290.79023     +0.83675906     +0.20518103
e   1.0017019      Incl.   48.36116     +0.48162656     -0.71689039
From 409 observations 2019 June 10-2020 Jan. 8, mean residual 0".4.

* Finding Charts

* Magnitudes Graph

        m1 = 4.5 + 5 log d + 10.0 log r

---------------------------------------------------------------------

The orbital elements are published on M.P.E.C. 2020-A105.
The charts are made with StellaNavigator Ver.10 (AstroArts).
The magnitudes graphs are made with Comet for Windows.

---------------------------------------------------------------------

Copyright(C) Seiichi Yoshida (comet@aerith.net). All rights reserved.